| time (UTC) | temp F | wind direction | speed MPH | gust MPH | rain 1hr in | rain 24hr in | rain mn in | humidity % | barometer mb |
| 20260906160057 | 72 | 360 | 0.0 | 0.0 | 0.00 | 0.00 | 0.00 | 41 | 1018.1 |
| 20260906155558 | 71 | 360 | 0.0 | 0.0 | 0.00 | 0.00 | 0.00 | 40 | 1018.2 |
| 20260906155058 | 71 | 360 | 0.0 | 0.0 | 0.00 | 0.00 | 0.00 | 40 | 1018.2 |
| 20260906154559 | 70 | 360 | 0.0 | 1.0 | 0.00 | 0.00 | 0.00 | 41 | 1018.1 |
| 20260906154040 | 69 | 360 | 0.0 | 1.0 | 0.00 | 0.00 | 0.00 | 42 | 1018.1 |
| 20260906153622 | 69 | 360 | 0.0 | 0.0 | 0.00 | 0.00 | 0.00 | 42 | 1018.2 |
| 20260906153102 | 69 | 360 | 0.0 | 0.0 | 0.00 | 0.00 | 0.00 | 42 | 1018.3 |
| 20260906152522 | 68 | 360 | 0.0 | 0.0 | 0.00 | 0.00 | 0.00 | 43 | 1018.2 |
| 20260906152024 | 67 | 360 | 0.0 | 0.0 | 0.00 | 0.00 | 0.00 | 43 | 1018.3 |
| 20260906151525 | 68 | 360 | 0.0 | 0.0 | 0.00 | 0.00 | 0.00 | 43 | 1018.3 |
| 20260906151027 | 69 | 360 | 0.0 | 0.0 | 0.00 | 0.00 | 0.00 | 42 | 1018.4 |
| 20260906150609 | 68 | 360 | 0.0 | 0.0 | 0.00 | 0.00 | 0.00 | 43 | 1018.6 |
| 20260906150049 | 66 | 360 | 0.0 | 0.0 | 0.00 | 0.00 | 0.00 | 44 | 1018.6 |
| 20260906145528 | 65 | 360 | 0.0 | 0.0 | 0.00 | 0.00 | 0.00 | 45 | 1018.6 |
| 20260906144530 | 64 | 360 | 0.0 | 0.0 | 0.00 | 0.00 | 0.00 | 47 | 1018.8 |
| 20260906144032 | 62 | 360 | 0.0 | 0.0 | 0.00 | 0.00 | 0.00 | 48 | 1018.8 |
| 20260906143613 | 62 | 360 | 0.0 | 0.0 | 0.00 | 0.00 | 0.00 | 48 | 1018.9 |
| 20260906143052 | 62 | 360 | 0.0 | 0.0 | 0.00 | 0.00 | 0.00 | 48 | 1018.8 |
| 20260906142552 | 62 | 360 | 0.0 | 0.0 | 0.00 | 0.00 | 0.00 | 49 | 1018.9 |
| 20260906142033 | 61 | 360 | 0.0 | 0.0 | 0.00 | 0.00 | 0.00 | 50 | 1018.8 |
| 20260906141534 | 60 | 360 | 0.0 | 0.0 | 0.00 | 0.00 | 0.00 | 51 | 1018.9 |
| 20260906141036 | 59 | 360 | 0.0 | 0.0 | 0.00 | 0.00 | 0.00 | 51 | 1018.9 |
| 20260906140540 | 59 | 360 | 0.0 | 0.0 | 0.00 | 0.00 | 0.00 | 52 | 1019.0 |
| 20260906140022 | 58 | 360 | 0.0 | 0.0 | 0.00 | 0.00 | 0.00 | 52 | 1019.0 |
| 20260906135523 | 58 | 360 | 0.0 | 0.0 | 0.00 | 0.00 | 0.00 | 52 | 1019.0 |
| 20260906135045 | 58 | 360 | 0.0 | 0.0 | 0.00 | 0.00 | 0.00 | 52 | 1019.0 |
| 20260906134525 | 57 | 360 | 0.0 | 0.0 | 0.00 | 0.00 | 0.00 | 54 | 1019.0 |
| 20260906134027 | 55 | 360 | 0.0 | 0.0 | 0.00 | 0.00 | 0.00 | 56 | 1018.9 |
| 20260906133528 | 54 | 360 | 0.0 | 0.0 | 0.00 | 0.00 | 0.00 | 57 | 1018.9 |
| 20260906133110 | 53 | 360 | 0.0 | 0.0 | 0.00 | 0.00 | 0.00 | 58 | 1018.9 |
| 20260906132550 | 52 | 360 | 0.0 | 3.0 | 0.00 | 0.00 | 0.00 | 59 | 1018.8 |
| 20260906132030 | 51 | 360 | 2.0 | 3.0 | 0.00 | 0.00 | 0.00 | 61 | 1018.8 |
| 20260906131532 | 50 | 360 | 2.0 | 3.0 | 0.00 | 0.00 | 0.00 | 61 | 1018.8 |
| 20260906131054 | 49 | 360 | 0.0 | 4.0 | 0.00 | 0.00 | 0.00 | 61 | 1018.7 |
| 20260906130554 | 49 | 360 | 1.0 | 5.0 | 0.00 | 0.00 | 0.00 | 61 | 1018.7 |
| 20260906130034 | 49 | 360 | 4.0 | 5.0 | 0.00 | 0.00 | 0.00 | 60 | 1018.7 |
| 20260906125535 | 49 | 360 | 0.0 | 4.0 | 0.00 | 0.00 | 0.00 | 60 | 1018.7 |
| 20260906125036 | 49 | 360 | 1.0 | 4.0 | 0.00 | 0.00 | 0.00 | 60 | 1018.6 |
| 20260906124558 | 50 | 360 | 2.0 | 4.0 | 0.00 | 0.00 | 0.00 | 59 | 1018.7 |
| 20260906124038 | 50 | 360 | 0.0 | 1.0 | 0.00 | 0.00 | 0.00 | 60 | 1018.6 |
| 20260906123523 | 50 | 360 | 0.0 | 1.0 | 0.00 | 0.00 | 0.00 | 59 | 1018.6 |
| 20260906123045 | 50 | 360 | 0.0 | 0.0 | 0.00 | 0.00 | 0.00 | 60 | 1018.7 |
| 20260906122623 | 50 | 360 | 0.0 | 4.0 | 0.00 | 0.00 | 0.00 | 60 | 1018.8 |
| 20260906122026 | 50 | 360 | 0.0 | 4.0 | 0.00 | 0.00 | 0.00 | 59 | 1018.6 |
| 20260906121548 | 50 | 360 | 0.0 | 1.0 | 0.00 | 0.00 | 0.00 | 59 | 1018.7 |
| 20260906121028 | 50 | 360 | 0.0 | 4.0 | 0.00 | 0.00 | 0.00 | 59 | 1018.7 |
| 20260906120549 | 50 | 360 | 3.0 | 4.0 | 0.00 | 0.00 | 0.00 | 59 | 1018.7 |
| 20260906120050 | 50 | 360 | 2.0 | 4.0 | 0.00 | 0.00 | 0.00 | 59 | 1018.7 |
| 20260906115048 | 51 | 360 | 1.0 | 6.0 | 0.00 | 0.00 | 0.00 | 58 | 1018.7 |
| 20260906114533 | 51 | 360 | 4.0 | 5.0 | 0.00 | 0.00 | 0.00 | 57 | 1018.9 |
| 20260906114055 | 52 | 360 | 0.0 | 2.0 | 0.00 | 0.00 | 0.00 | 57 | 1018.8 |
| 20260906113554 | 52 | 360 | 0.0 | 0.0 | 0.00 | 0.00 | 0.00 | 56 | 1018.7 |
| 20260906113035 | 53 | 360 | 0.0 | 0.0 | 0.00 | 0.00 | 0.00 | 56 | 1018.7 |
| 20260906112536 | 53 | 360 | 0.0 | 0.0 | 0.00 | 0.00 | 0.00 | 55 | 1018.8 |
| 20260906112038 | 53 | 360 | 0.0 | 0.0 | 0.00 | 0.00 | 0.00 | 55 | 1018.6 |
| 20260906111539 | 53 | 360 | 0.0 | 0.0 | 0.00 | 0.00 | 0.00 | 55 | 1018.6 |
| 20260906111041 | 53 | 360 | 0.0 | 1.0 | 0.00 | 0.00 | 0.00 | 55 | 1018.6 |
| 20260906110541 | 53 | 360 | 0.0 | 5.0 | 0.00 | 0.00 | 0.00 | 55 | 1018.6 |
| 20260906110022 | 53 | 360 | 0.0 | 5.0 | 0.00 | 0.00 | 0.00 | 56 | 1018.6 |
| 20260906105524 | 52 | 360 | 3.0 | 4.0 | 0.00 | 0.00 | 0.00 | 56 | 1018.6 |
| 20260906105025 | 52 | 360 | 0.0 | 4.0 | 0.00 | 0.00 | 0.00 | 56 | 1018.4 |
| 20260906104546 | 53 | 360 | 2.0 | 4.0 | 0.00 | 0.00 | 0.00 | 56 | 1018.3 |
| 20260906103525 | 54 | 360 | 3.0 | 4.0 | 0.00 | 0.00 | 0.00 | 55 | 1018.1 |
| 20260906103048 | 54 | 360 | 0.0 | 0.0 | 0.00 | 0.00 | 0.00 | 55 | 1018.1 |
| 20260906102528 | 54 | 360 | 0.0 | 0.0 | 0.00 | 0.00 | 0.00 | 55 | 1018.1 |
| 20260906102049 | 54 | 360 | 0.0 | 0.0 | 0.00 | 0.00 | 0.00 | 55 | 1018.0 |
| 20260906101530 | 53 | 360 | 0.0 | 0.0 | 0.00 | 0.00 | 0.00 | 56 | 1018.0 |
| 20260906101114 | 53 | 360 | 0.0 | 0.0 | 0.00 | 0.00 | 0.00 | 56 | 1018.0 |
| 20260906100532 | 53 | 360 | 0.0 | 4.0 | 0.00 | 0.00 | 0.00 | 57 | 1017.9 |
| 20260906100054 | 52 | 360 | 1.0 | 4.0 | 0.00 | 0.00 | 0.00 | 56 | 1017.9 |
| 20260906095535 | 53 | 360 | 0.0 | 5.0 | 0.00 | 0.00 | 0.00 | 56 | 1018.0 |
| 20260906095056 | 53 | 360 | 3.0 | 5.0 | 0.00 | 0.00 | 0.00 | 56 | 1017.9 |
| 20260906094617 | 52 | 360 | 3.0 | 4.0 | 0.00 | 0.00 | 0.00 | 57 | 1018.0 |
| 20260906094038 | 52 | 360 | 1.0 | 5.0 | 0.00 | 0.00 | 0.00 | 56 | 1018.0 |
| 20260906093558 | 52 | 360 | 3.0 | 5.0 | 0.00 | 0.00 | 0.00 | 55 | 1018.0 |
| 20260906093022 | 53 | 360 | 4.0 | 4.0 | 0.00 | 0.00 | 0.00 | 54 | 1017.9 |
| 20260906092525 | 54 | 360 | 0.0 | 0.0 | 0.00 | 0.00 | 0.00 | 53 | 1017.9 |
| 20260906092046 | 54 | 360 | 0.0 | 0.0 | 0.00 | 0.00 | 0.00 | 53 | 1017.8 |
| 20260906091547 | 54 | 360 | 0.0 | 4.0 | 0.00 | 0.00 | 0.00 | 54 | 1017.8 |
| 20260906091028 | 53 | 360 | 2.0 | 4.0 | 0.00 | 0.00 | 0.00 | 54 | 1017.8 |
| 20260906090529 | 53 | 360 | 2.0 | 4.0 | 0.00 | 0.00 | 0.00 | 54 | 1017.7 |
| 20260906090111 | 54 | 360 | 3.0 | 4.0 | 0.00 | 0.00 | 0.00 | 53 | 1017.8 |
| 20260906085551 | 54 | 360 | 3.0 | 4.0 | 0.00 | 0.00 | 0.00 | 52 | 1017.7 |
| 20260906084552 | 55 | 360 | 0.0 | 0.0 | 0.00 | 0.00 | 0.00 | 51 | 1017.7 |
| 20260906084054 | 56 | 360 | 0.0 | 0.0 | 0.00 | 0.00 | 0.00 | 51 | 1017.8 |
| 20260906083552 | 57 | 360 | 0.0 | 0.0 | 0.00 | 0.00 | 0.00 | 49 | 1017.8 |
| 20260906083050 | 58 | 360 | 0.0 | 0.0 | 0.00 | 0.00 | 0.00 | 49 | 1017.6 |
| 20260906082531 | 58 | 360 | 0.0 | 0.0 | 0.00 | 0.00 | 0.00 | 49 | 1017.6 |
| 20260906082114 | 58 | 360 | 0.0 | 0.0 | 0.00 | 0.00 | 0.00 | 48 | 1017.5 |
| 20260906081049 | 59 | 360 | 0.0 | 0.0 | 0.00 | 0.00 | 0.00 | 48 | 1017.5 |
| 20260906080548 | 59 | 360 | 0.0 | 0.0 | 0.00 | 0.00 | 0.00 | 48 | 1017.5 |
| 20260906080048 | 59 | 360 | 0.0 | 0.0 | 0.00 | 0.00 | 0.00 | 48 | 1017.5 |
| 20260906075532 | 59 | 360 | 0.0 | 0.0 | 0.00 | 0.00 | 0.00 | 48 | 1017.5 |
| 20260906075111 | 59 | 360 | 0.0 | 0.0 | 0.00 | 0.00 | 0.00 | 48 | 1017.4 |
| 20260906074534 | 59 | 360 | 0.0 | 3.0 | 0.00 | 0.00 | 0.00 | 49 | 1017.3 |
| 20260906074036 | 58 | 360 | 0.0 | 5.0 | 0.00 | 0.00 | 0.00 | 49 | 1017.3 |
| 20260906073557 | 58 | 360 | 3.0 | 6.0 | 0.00 | 0.00 | 0.00 | 49 | 1017.3 |
| 20260906073057 | 58 | 360 | 5.0 | 6.0 | 0.00 | 0.00 | 0.00 | 50 | 1017.2 |
| 20260906072539 | 58 | 360 | 1.0 | 6.0 | 0.00 | 0.00 | 0.00 | 49 | 1017.3 |
| 20260906072040 | 58 | 360 | 3.0 | 6.0 | 0.00 | 0.00 | 0.00 | 49 | 1017.3 |
| 20260906071601 | 58 | 360 | 3.0 | 4.0 | 0.00 | 0.00 | 0.00 | 49 | 1017.2 |
| 20260906070602 | 58 | 360 | 2.0 | 6.0 | 0.00 | 0.00 | 0.00 | 48 | 1017.2 |
| 20260906070042 | 59 | 360 | 4.0 | 5.0 | 0.00 | 0.00 | 0.00 | 47 | 1017.2 |
| 20260906065604 | 59 | 360 | 0.0 | 2.0 | 0.00 | 0.00 | 0.00 | 47 | 1017.1 |
| 20260906065105 | 59 | 360 | 0.0 | 3.0 | 0.00 | 0.00 | 0.00 | 47 | 1017.0 |
| 20260906064605 | 59 | 360 | 1.0 | 4.0 | 0.00 | 0.00 | 0.00 | 47 | 1017.9 |
| 20260906064027 | 60 | 360 | 2.0 | 4.0 | 0.00 | 0.00 | 0.00 | 46 | 1017.8 |
| 20260906063548 | 60 | 360 | 0.0 | 3.0 | 0.00 | 0.00 | 0.00 | 46 | 1017.6 |
| 20260906063028 | 61 | 360 | 0.0 | 4.0 | 0.00 | 0.00 | 0.00 | 45 | 1017.7 |
| 20260906062609 | 61 | 360 | 2.0 | 4.0 | 0.00 | 0.00 | 0.00 | 44 | 1017.6 |
| 20260906062050 | 62 | 360 | 0.0 | 4.0 | 0.00 | 0.00 | 0.00 | 44 | 1017.7 |
| 20260906061551 | 62 | 360 | 4.0 | 4.0 | 0.00 | 0.00 | 0.00 | 44 | 1017.5 |
| 20260906061034 | 62 | 360 | 0.0 | 4.0 | 0.00 | 0.00 | 0.00 | 44 | 1017.4 |
| 20260906060534 | 62 | 360 | 0.0 | 7.0 | 0.00 | 0.00 | 0.00 | 44 | 1017.4 |
| 20260906060035 | 62 | 360 | 5.0 | 7.0 | 0.00 | 0.00 | 0.00 | 44 | 1017.3 |
| 20260906055536 | 62 | 360 | 6.0 | 7.0 | 0.00 | 0.00 | 0.00 | 43 | 1017.3 |
| 20260906055057 | 63 | 360 | 5.0 | 6.0 | 0.00 | 0.00 | 0.00 | 43 | 1017.3 |
| 20260906054537 | 63 | 360 | 2.0 | 6.0 | 0.00 | 0.00 | 0.00 | 43 | 1017.4 |
| 20260906054100 | 63 | 360 | 5.0 | 6.0 | 0.00 | 0.00 | 0.00 | 42 | 1017.4 |
| 20260906053540 | 64 | 360 | 4.0 | 6.0 | 0.00 | 0.00 | 0.00 | 42 | 1017.4 |
| 20260906053122 | 64 | 360 | 3.0 | 6.0 | 0.00 | 0.00 | 0.00 | 42 | 1017.4 |
| 20260906052101 | 65 | 360 | 0.0 | 4.0 | 0.00 | 0.00 | 0.00 | 41 | 1017.4 |
| 20260906051040 | 66 | 360 | 0.0 | 4.0 | 0.00 | 0.00 | 0.00 | 41 | 1017.6 |
| 20260906050541 | 67 | 360 | 2.0 | 3.0 | 0.00 | 0.00 | 0.00 | 39 | 1017.5 |
| 20260906045541 | 68 | 360 | 0.0 | 3.0 | 0.00 | 0.00 | 0.00 | 39 | 1017.4 |
| 20260906045103 | 68 | 360 | 0.0 | 3.0 | 0.00 | 0.00 | 0.00 | 38 | 1017.4 |
| 20260906044544 | 69 | 360 | 0.0 | 2.0 | 0.00 | 0.00 | 0.00 | 38 | 1017.4 |
| 20260906044106 | 69 | 360 | 0.0 | 2.0 | 0.00 | 0.00 | 0.00 | 38 | 1017.3 |
| 20260906043525 | 70 | 360 | 0.0 | 0.0 | 0.00 | 0.00 | 0.00 | 38 | 1017.2 |
| 20260906043107 | 70 | 360 | 0.0 | 2.0 | 0.00 | 0.00 | 0.00 | 38 | 1017.3 |
| 20260906042627 | 70 | 360 | 0.0 | 2.0 | 0.00 | 0.00 | 0.00 | 37 | 1017.2 |
| 20260906042027 | 71 | 360 | 0.0 | 0.0 | 0.00 | 0.00 | 0.00 | 36 | 1017.2 |
| 20260906041528 | 71 | 360 | 0.0 | 0.0 | 0.00 | 0.00 | 0.00 | 36 | 1017.1 |
| 20260906041111 | 72 | 360 | 0.0 | 0.0 | 0.00 | 0.00 | 0.00 | 35 | 1017.1 |
| 20260906040609 | 72 | 360 | 0.0 | 0.0 | 0.00 | 0.00 | 0.00 | 35 | 1017.0 |
| 20260906040048 | 72 | 360 | 0.0 | 0.0 | 0.00 | 0.00 | 0.00 | 34 | 1016.9 |
| 20260906035048 | 73 | 360 | 0.0 | 2.0 | 0.00 | 0.00 | 0.00 | 33 | 1016.7 |
| 20260906034528 | 73 | 360 | 0.0 | 3.0 | 0.00 | 0.00 | 0.00 | 33 | 1016.7 |
| 20260906034030 | 73 | 360 | 0.0 | 5.0 | 0.00 | 0.00 | 0.00 | 32 | 1016.6 |
| 20260906033530 | 74 | 360 | 0.0 | 7.0 | 0.00 | 0.00 | 0.00 | 30 | 1016.6 |
| 20260906033051 | 75 | 360 | 4.0 | 7.0 | 0.00 | 0.00 | 0.00 | 29 | 1016.3 |
| 20260906032530 | 77 | 360 | 3.0 | 4.0 | 0.00 | 0.00 | 0.00 | 28 | 1016.2 |
| 20260906032051 | 78 | 360 | 1.0 | 6.0 | 0.00 | 0.00 | 0.00 | 27 | 1016.1 |
| 20260906031531 | 78 | 360 | 3.0 | 11.0 | 0.00 | 0.00 | 0.00 | 28 | 1016.0 |
| 20260906031033 | 78 | 360 | 6.0 | 11.0 | 0.00 | 0.00 | 0.00 | 27 | 1016.0 |
| 20260906030554 | 77 | 360 | 8.0 | 11.0 | 0.00 | 0.00 | 0.00 | 27 | 1015.9 |
| 20260906030035 | 75 | 360 | 5.0 | 12.0 | 0.00 | 0.00 | 0.00 | 28 | 1015.7 |
| 20260906025034 | 74 | 360 | 0.0 | 0.0 | 0.00 | 0.00 | 0.00 | 28 | 1015.2 |
| 20260906024035 | 75 | 360 | 0.0 | 0.0 | 0.00 | 0.00 | 0.00 | 28 | 1014.9 |
| 20260906023556 | 77 | 360 | 0.0 | 0.0 | 0.00 | 0.00 | 0.00 | 27 | 1014.8 |
| 20260906023118 | 77 | 360 | 0.0 | 0.0 | 0.00 | 0.00 | 0.00 | 27 | 1014.7 |
| 20260906022618 | 77 | 360 | 0.0 | 0.0 | 0.00 | 0.00 | 0.00 | 26 | 1014.6 |
| 20260906022057 | 77 | 360 | 0.0 | 0.0 | 0.00 | 0.00 | 0.00 | 26 | 1014.5 |
| 20260906021538 | 78 | 360 | 0.0 | 0.0 | 0.00 | 0.00 | 0.00 | 26 | 1014.5 |
| 20260906021040 | 78 | 360 | 0.0 | 3.0 | 0.00 | 0.00 | 0.00 | 25 | 1014.5 |
| 20260906020541 | 78 | 360 | 0.0 | 4.0 | 0.00 | 0.00 | 0.00 | 25 | 1014.4 |
| 20260906020103 | 79 | 360 | 3.0 | 4.0 | 0.00 | 0.00 | 0.00 | 25 | 1014.3 |
| 20260906015526 | 81 | 360 | 3.0 | 5.0 | 0.00 | 0.00 | 0.00 | 24 | 1014.2 |
| 20260906015028 | 83 | 360 | 3.0 | 7.0 | 0.00 | 0.00 | 0.00 | 22 | 1014.3 |
| 20260906014531 | 85 | 360 | 3.0 | 10.0 | 0.00 | 0.00 | 0.00 | 21 | 1014.2 |
| 20260906014113 | 86 | 360 | 5.0 | 10.0 | 0.00 | 0.00 | 0.00 | 21 | 1014.1 |
| 20260906013552 | 87 | 360 | 6.0 | 9.0 | 0.00 | 0.00 | 0.00 | 21 | 1014.1 |
| 20260906013032 | 87 | 360 | 4.0 | 12.0 | 0.00 | 0.00 | 0.00 | 21 | 1014.1 |
| 20260906012532 | 88 | 360 | 1.0 | 12.0 | 0.00 | 0.00 | 0.00 | 21 | 1014.1 |
| 20260906012034 | 88 | 360 | 1.0 | 10.0 | 0.00 | 0.00 | 0.00 | 20 | 1014.1 |
| 20260906011617 | 88 | 360 | 2.0 | 10.0 | 0.00 | 0.00 | 0.00 | 21 | 1014.1 |
| 20260906011036 | 88 | 360 | 1.0 | 10.0 | 0.00 | 0.00 | 0.00 | 21 | 1014.1 |
| 20260906010557 | 88 | 360 | 2.0 | 9.0 | 0.00 | 0.00 | 0.00 | 21 | 1014.1 |
| 20260906010037 | 89 | 360 | 1.0 | 9.0 | 0.00 | 0.00 | 0.00 | 21 | 1014.1 |
| 20260906005619 | 89 | 360 | 0.0 | 4.0 | 0.00 | 0.00 | 0.00 | 21 | 1014.1 |
| 20260906005038 | 89 | 360 | 0.0 | 10.0 | 0.00 | 0.00 | 0.00 | 21 | 1014.1 |
| 20260906004540 | 89 | 360 | 0.0 | 10.0 | 0.00 | 0.00 | 0.00 | 21 | 1013.9 |
| 20260906004042 | 90 | 360 | 0.0 | 0.0 | 0.00 | 0.00 | 0.00 | 23 | 1013.9 |
| 20260906003541 | 90 | 360 | 0.0 | 0.0 | 0.00 | 0.00 | 0.00 | 23 | 1014.0 |
| 20260906003044 | 90 | 360 | 0.0 | 7.0 | 0.00 | 0.00 | 0.00 | 23 | 1014.0 |
| 20260906002526 | 90 | 360 | 4.0 | 7.0 | 0.00 | 0.00 | 0.00 | 23 | 1014.0 |
| 20260906002027 | 90 | 360 | 0.0 | 6.0 | 0.00 | 0.00 | 0.00 | 23 | 1014.0 |
| 20260906001533 | 89 | 360 | 1.0 | 9.0 | 0.00 | 0.00 | 0.00 | 22 | 1014.0 |
| 20260906001034 | 89 | 360 | 5.0 | 12.0 | 0.00 | 0.00 | 0.00 | 23 | 1014.0 |
| 20260905235548 | 90 | 360 | 2.0 | 13.0 | 0.00 | 0.00 | 0.00 | 23 | 1014.0 |
| 20260905235049 | 90 | 360 | 0.0 | 10.0 | 0.00 | 0.00 | 0.00 | 22 | 1013.9 |
| 20260905234550 | 90 | 360 | 4.0 | 13.0 | 0.00 | 0.00 | 0.00 | 22 | 1014.1 |
| 20260905234051 | 90 | 360 | 2.0 | 13.0 | 0.00 | 0.00 | 0.00 | 23 | 1014.1 |
| 20260905233530 | 90 | 360 | 0.0 | 13.0 | 0.00 | 0.00 | 0.00 | 23 | 1014.1 |
| 20260905233032 | 90 | 360 | 3.0 | 13.0 | 0.00 | 0.00 | 0.00 | 23 | 1014.0 |
| 20260905232615 | 91 | 360 | 1.0 | 15.0 | 0.00 | 0.00 | 0.00 | 22 | 1014.0 |
| 20260905232034 | 91 | 360 | 5.0 | 15.0 | 0.00 | 0.00 | 0.00 | 23 | 1014.1 |
| 20260905231556 | 91 | 360 | 3.0 | 14.0 | 0.00 | 0.00 | 0.00 | 22 | 1014.1 |
| 20260905231057 | 91 | 360 | 4.0 | 14.0 | 0.00 | 0.00 | 0.00 | 22 | 1014.1 |
| 20260905230540 | 91 | 360 | 0.0 | 27.0 | 0.00 | 0.00 | 0.00 | 22 | 1014.1 |
| 20260905230041 | 91 | 360 | 10.0 | 27.0 | 0.00 | 0.00 | 0.00 | 23 | 1014.1 |
| 20260905225542 | 91 | 360 | 0.0 | 11.0 | 0.00 | 0.00 | 0.00 | 22 | 1014.1 |
| 20260905225103 | 91 | 360 | 1.0 | 11.0 | 0.00 | 0.00 | 0.00 | 22 | 1014.2 |
| 20260905224605 | 91 | 360 | 0.0 | 10.0 | 0.00 | 0.00 | 0.00 | 23 | 1014.2 |
| 20260905224104 | 91 | 360 | 3.0 | 10.0 | 0.00 | 0.00 | 0.00 | 23 | 1014.2 |
| 20260905223624 | 91 | 360 | 2.0 | 9.0 | 0.00 | 0.00 | 0.00 | 22 | 1014.3 |
| 20260905223043 | 91 | 360 | 0.0 | 9.0 | 0.00 | 0.00 | 0.00 | 23 | 1014.3 |
| 20260905222545 | 91 | 360 | 0.0 | 7.0 | 0.00 | 0.00 | 0.00 | 22 | 1014.3 |
| 20260905222025 | 90 | 360 | 0.0 | 13.0 | 0.00 | 0.00 | 0.00 | 22 | 1014.4 |
| 20260905221546 | 91 | 360 | 0.0 | 13.0 | 0.00 | 0.00 | 0.00 | 22 | 1014.4 |
| 20260905221048 | 90 | 360 | 0.0 | 7.0 | 0.00 | 0.00 | 0.00 | 23 | 1014.5 |
| 20260905220527 | 90 | 360 | 3.0 | 16.0 | 0.00 | 0.00 | 0.00 | 23 | 1014.7 |
| 20260905215548 | 90 | 360 | 4.0 | 14.0 | 0.00 | 0.00 | 0.00 | 23 | 1014.7 |
| 20260905215049 | 90 | 360 | 0.0 | 17.0 | 0.00 | 0.00 | 0.00 | 23 | 1014.7 |
| 20260905214551 | 90 | 360 | 11.0 | 17.0 | 0.00 | 0.00 | 0.00 | 23 | 1014.8 |
| 20260905214112 | 90 | 360 | 0.0 | 13.0 | 0.00 | 0.00 | 0.00 | 24 | 1014.9 |
| 20260905213546 | 90 | 360 | 4.0 | 14.0 | 0.00 | 0.00 | 0.00 | 23 | 1014.9 |
| 20260905213108 | 90 | 360 | 1.0 | 19.0 | 0.00 | 0.00 | 0.00 | 23 | 1014.8 |
| 20260905212528 | 90 | 360 | 7.0 | 11.0 | 0.00 | 0.00 | 0.00 | 23 | 1014.9 |
| 20260905212028 | 90 | 360 | 0.0 | 16.0 | 0.00 | 0.00 | 0.00 | 22 | 1015.0 |
| 20260905211550 | 90 | 360 | 2.0 | 16.0 | 0.00 | 0.00 | 0.00 | 23 | 1015.0 |
| 20260905211033 | 90 | 360 | 0.0 | 13.0 | 0.00 | 0.00 | 0.00 | 23 | 1015.1 |
| 20260905210553 | 89 | 360 | 2.0 | 15.0 | 0.00 | 0.00 | 0.00 | 23 | 1015.1 |
| 20260905210033 | 89 | 360 | 3.0 | 24.0 | 0.00 | 0.00 | 0.00 | 23 | 1015.1 |
| 20260905205034 | 90 | 360 | 3.0 | 15.0 | 0.00 | 0.00 | 0.00 | 25 | 1015.2 |
| 20260905204556 | 89 | 360 | 4.0 | 15.0 | 0.00 | 0.00 | 0.00 | 24 | 1015.3 |
| 20260905203556 | 88 | 360 | 5.0 | 7.0 | 0.00 | 0.00 | 0.00 | 24 | 1015.5 |
| 20260905203035 | 88 | 360 | 0.0 | 9.0 | 0.00 | 0.00 | 0.00 | 25 | 1015.4 |
| 20260905202056 | 88 | 360 | 0.0 | 6.0 | 0.00 | 0.00 | 0.00 | 25 | 1015.7 |
| 20260905201536 | 87 | 360 | 0.0 | 7.0 | 0.00 | 0.00 | 0.00 | 25 | 1015.7 |
| 20260905201059 | 87 | 360 | 3.0 | 8.0 | 0.00 | 0.00 | 0.00 | 26 | 1015.7 |
| 20260905200058 | 87 | 360 | 2.0 | 7.0 | 0.00 | 0.00 | 0.00 | 26 | 1015.8 |
| 20260905195559 | 86 | 360 | 3.0 | 6.0 | 0.00 | 0.00 | 0.00 | 26 | 1015.9 |
| 20260905195100 | 86 | 360 | 2.0 | 11.0 | 0.00 | 0.00 | 0.00 | 26 | 1016.0 |
| 20260905194540 | 87 | 360 | 7.0 | 11.0 | 0.00 | 0.00 | 0.00 | 26 | 1015.9 |
| 20260905194042 | 87 | 360 | 1.0 | 11.0 | 0.00 | 0.00 | 0.00 | 26 | 1016.1 |
| 20260905193603 | 86 | 360 | 6.0 | 10.0 | 0.00 | 0.00 | 0.00 | 27 | 1016.0 |
| 20260905193123 | 86 | 360 | 3.0 | 10.0 | 0.00 | 0.00 | 0.00 | 27 | 1016.1 |
| 20260905192604 | 86 | 360 | 5.0 | 10.0 | 0.00 | 0.00 | 0.00 | 27 | 1016.2 |
| 20260905192105 | 86 | 360 | 5.0 | 8.0 | 0.00 | 0.00 | 0.00 | 26 | 1016.3 |
| 20260905191606 | 85 | 360 | 1.0 | 6.0 | 0.00 | 0.00 | 0.00 | 27 | 1016.3 |
| 20260905191046 | 85 | 360 | 1.0 | 6.0 | 0.00 | 0.00 | 0.00 | 27 | 1016.4 |
| 20260905190525 | 84 | 360 | 0.0 | 5.0 | 0.00 | 0.00 | 0.00 | 27 | 1016.5 |
| 20260905190107 | 84 | 360 | 0.0 | 4.0 | 0.00 | 0.00 | 0.00 | 27 | 1016.5 |
| 20260905185547 | 84 | 360 | 1.0 | 5.0 | 0.00 | 0.00 | 0.00 | 27 | 1016.6 |
| 20260905185028 | 83 | 360 | 1.0 | 7.0 | 0.00 | 0.00 | 0.00 | 27 | 1016.8 |
| 20260905184549 | 83 | 360 | 3.0 | 7.0 | 0.00 | 0.00 | 0.00 | 28 | 1016.9 |
| 20260905184050 | 82 | 360 | 0.0 | 4.0 | 0.00 | 0.00 | 0.00 | 28 | 1016.9 |
| 20260905183611 | 82 | 360 | 0.0 | 4.0 | 0.00 | 0.00 | 0.00 | 28 | 1017.0 |
| 20260905183111 | 82 | 360 | 0.0 | 3.0 | 0.00 | 0.00 | 0.00 | 27 | 1017.1 |
| 20260905182551 | 82 | 360 | 0.0 | 6.0 | 0.00 | 0.00 | 0.00 | 27 | 1017.2 |
| 20260905182051 | 82 | 360 | 3.0 | 6.0 | 0.00 | 0.00 | 0.00 | 27 | 1017.2 |
| 20260905181530 | 82 | 360 | 0.0 | 5.0 | 0.00 | 0.00 | 0.00 | 27 | 1017.4 |
| 20260905181053 | 83 | 360 | 2.0 | 5.0 | 0.00 | 0.00 | 0.00 | 28 | 1017.5 |
| 20260905180553 | 82 | 360 | 0.0 | 0.0 | 0.00 | 0.00 | 0.00 | 27 | 1017.5 |
| 20260905180033 | 81 | 360 | 0.0 | 0.0 | 0.00 | 0.00 | 0.00 | 27 | 1017.5 |
| 20260905175615 | 81 | 360 | 0.0 | 0.0 | 0.00 | 0.00 | 0.00 | 28 | 1017.6 |
| 20260905175034 | 79 | 360 | 0.0 | 0.0 | 0.00 | 0.00 | 0.00 | 28 | 1017.7 |
| 20260905174555 | 79 | 360 | 0.0 | 1.0 | 0.00 | 0.00 | 0.00 | 29 | 1017.8 |
| 20260905174117 | 78 | 360 | 0.0 | 1.0 | 0.00 | 0.00 | 0.00 | 29 | 1017.8 |
| 20260905173555 | 79 | 360 | 0.0 | 1.0 | 0.00 | 0.00 | 0.00 | 28 | 1017.8 |
| 20260905173036 | 79 | 360 | 0.0 | 0.0 | 0.00 | 0.00 | 0.00 | 29 | 1017.9 |
| 20260905172539 | 78 | 360 | 0.0 | 0.0 | 0.00 | 0.00 | 0.00 | 28 | 1018.0 |
| 20260905172121 | 78 | 360 | 0.0 | 0.0 | 0.00 | 0.00 | 0.00 | 29 | 1018.0 |
| 20260905171600 | 78 | 360 | 0.0 | 0.0 | 0.00 | 0.00 | 0.00 | 29 | 1018.0 |
| 20260905171122 | 77 | 360 | 0.0 | 2.0 | 0.00 | 0.00 | 0.00 | 29 | 1018.2 |
| 20260905170621 | 77 | 360 | 0.0 | 2.0 | 0.00 | 0.00 | 0.00 | 29 | 1018.2 |
| 20260905170122 | 77 | 360 | 0.0 | 1.0 | 0.00 | 0.00 | 0.00 | 29 | 1018.2 |
| 20260905165541 | 76 | 360 | 0.0 | 3.0 | 0.00 | 0.00 | 0.00 | 31 | 1018.2 |
| 20260905165043 | 76 | 360 | 0.0 | 2.0 | 0.00 | 0.00 | 0.00 | 30 | 1018.2 |
| 20260905164605 | 76 | 360 | 0.0 | 0.0 | 0.00 | 0.00 | 0.00 | 30 | 1018.3 |
| 20260905164046 | 77 | 360 | 0.0 | 0.0 | 0.00 | 0.00 | 0.00 | 29 | 1018.2 |
| 20260905163526 | 76 | 360 | 0.0 | 5.0 | 0.00 | 0.00 | 0.00 | 30 | 1018.2 |
| 20260905163048 | 76 | 360 | 2.0 | 5.0 | 0.00 | 0.00 | 0.00 | 30 | 1018.3 |
| 20260905162609 | 76 | 360 | 0.0 | 5.0 | 0.00 | 0.00 | 0.00 | 30 | 1018.3 |
| 20260905162050 | 75 | 360 | 1.0 | 5.0 | 0.00 | 0.00 | 0.00 | 31 | 1018.3 |
| 20260905161551 | 74 | 360 | 0.0 | 3.0 | 0.00 | 0.00 | 0.00 | 31 | 1018.3 |
| 20260905161113 | 74 | 360 | 1.0 | 5.0 | 0.00 | 0.00 | 0.00 | 32 | 1018.3 |
| 20260905160530 | 73 | 360 | 3.0 | 6.0 | 0.00 | 0.00 | 0.00 | 32 | 1018.3 |